GFSNE_850_spd_000.txt.gz
Wind_Speed
25 28 23 18 17 17 17 18 19 22 26 21 20 17 20 22 22 15 22 20 19 22 23 24 25 23 22 21 22 22 23 22 22 23 24 24 25 28
23 24 22 19 20 19 19 21 21 24 31 25 23 20 14 21 19 14 21 19 17 17 18 19 21 24 24 23 22 22 22 22 23 24 26 26 26 27
22 22 23 23 22 21 21 22 23 24 27 27 22 21 19 19 16 20 21 15 18 21 22 21 22 27 30 27 26 24 24 23 23 24 25 26 26 26
22 23 26 27 29 25 22 22 23 23 25 30 26 24 25 23 21 19 15 17 19 21 20 19 22 22 24 26 32 31 29 28 27 27 26 26 25 27
21 25 25 27 27 27 25 24 22 21 21 22 23 22 21 21 22 21 19 18 18 21 22 24 22 22 23 26 28 30 37 37 33 32 30 30 28 28
34 29 30 26 27 27 25 22 23 23 23 23 22 20 21 21 22 26 27 26 25 20 20 20 20 22 23 24 25 26 31 36 40 40 36 33 33 33
35 35 29 27 28 26 27 28 27 30 36 38 35 28 22 22 21 18 17 15 14 13 15 20 20 17 20 24 27 27 26 25 29 35 42 40 39 37
39 38 26 24 26 26 21 25 24 26 28 28 29 27 27 25 23 21 19 17 17 18 16 18 21 23 19 15 16 21 31 32 31 24 22 29 36 41
31 25 27 25 25 22 21 21 22 23 25 29 30 29 32 33 35 33 29 23 20 18 21 23 23 22 23 25 17 21 23 23 26 31 30 26 26 32
26 25 27 26 26 25 25 26 25 26 29 28 29 29 26 22 23 25 25 27 29 28 23 25 26 29 26 26 25 27 28 27 28 29 30 31 32 34
26 23 23 26 27 23 23 25 25 24 21 21 25 28 28 27 28 30 31 29 28 25 22 25 26 28 30 32 32 32 31 34 34 35 34 35 36 36
27 28 27 24 26 25 23 24 24 24 21 24 25 25 27 26 23 23 28 31 31 31 32 27 23 21 24 26 27 27 26 27 26 25 28 29 34 35
29 26 21 19 19 21 24 26 26 27 28 29 28 26 23 21 23 26 27 26 26 30 24 22 25 26 24 22 21 22 24 25 22 17 18 20 25 29
24 23 24 24 24 23 18 13 15 17 16 11 12 15 16 15 15 14 18 22 25 26 23 25 24 23 26 27 24 19 17 17 18 19 20 17 17 18
22 20 15 19 19 10 12 12 12 7 12 10 12 12 13 15 16 16 17 18 21 24 24 22 23 23 22 25 25 26 21 21 18 20 19 16 16 19
18 16 16 16 9 13 12 10 8 8 8 9 10 10 10 9 10 11 12 12 14 15 13 16 20 21 23 24 24 27 24 24 22 23 17 15 17 18
14 16 15 14 15 16 13 10 9 10 8 8 7 9 9 9 7 6 8 9 12 12 12 11 12 14 17 19 22 24 24 24 23 20 20 19 15 14
13 14 16 16 15 17 16 13 13 14 12 10 8 9 9 8 7 6 8 7 9 8 9 9 11 12 13 15 17 19 18 19 19 16 18 18 18 17
13 13 16 16 15 14 15 15 17 16 12 12 11 10 9 6 9 8 7 9 7 8 7 11 5 6 13 17 16 13 16 16 19 21 20 20 22 21
14 13 15 16 15 14 14 13 16 17 13 11 11 10 9 9 9 9 6 8 7 8 5 3 4 8 9 5 7 7 7 17 19 19 19 17 14 13
14 13 13 14 15 13 13 11 13 14 15 10 11 12 12 10 9 9 9 7 7 6 8 10 8 6 5 5 8 14 9 6 8 10 12 11 9 12
14 12 12 13 13 13 12 10 11 11 11 10 9 11 12 10 10 10 9 8 8 7 6 6 7 8 5 5 5 4 7 9 6 5 4 8 11 5
14 12 11 12 13 13 13 11 10 11 10 10 6 9 11 10 10 10 8 8 9 8 6 7 6 5 7 8 5 4 7 5 5 5 7 10 6 10

GFSNE_850_spd_003.txt.gz
Wind_Speed
28 29 29 23 25 22 21 21 23 26 31 29 28 20 15 14 15 18 20 20 19 22 19 21 24 26 24 22 22 23 26 27 25 23 22 22 22 23
21 22 21 21 23 25 22 21 20 20 30 26 27 22 18 18 13 15 21 14 14 12 20 18 18 17 17 20 20 21 23 26 27 26 24 23 22 21
22 20 21 21 24 28 29 29 27 22 22 27 25 21 22 23 21 15 15 15 16 24 19 19 18 20 21 21 21 20 20 22 24 25 25 25 24 23
16 21 24 31 32 24 24 26 26 26 24 23 24 20 17 15 15 12 14 14 13 14 17 20 16 14 17 16 16 19 24 23 22 23 24 25 25 25
29 32 32 29 30 30 25 25 25 19 18 20 23 18 16 14 17 14 11 14 17 12 9 16 19 19 21 21 22 22 21 24 29 29 27 25 25 25
34 32 34 34 32 30 28 24 25 27 30 27 26 26 25 20 18 19 18 12 16 18 19 16 13 13 12 17 20 22 22 21 23 25 29 33 32 31
38 39 37 32 24 21 24 24 23 25 26 27 30 30 30 32 29 23 20 19 14 11 8 9 11 14 15 16 20 22 22 23 23 22 21 20 24 31
31 36 33 23 17 19 21 21 21 17 19 20 23 25 26 25 26 27 27 23 22 19 17 16 14 14 14 14 17 23 28 32 30 29 27 24 21 21
32 31 27 22 22 24 25 25 24 22 21 22 24 25 27 25 24 25 27 28 25 29 25 26 23 20 17 16 18 19 21 22 23 23 23 26 27 27
29 29 26 24 23 23 24 24 25 28 27 26 26 30 29 30 23 21 21 23 25 26 26 31 33 32 31 30 24 20 22 23 24 27 29 28 27 28
26 31 26 26 23 20 22 22 22 22 19 18 18 21 21 23 24 24 26 26 29 28 24 25 24 26 29 31 31 30 29 29 29 30 31 36 37 35
32 32 21 17 18 18 18 20 23 22 22 22 23 22 23 25 21 22 23 21 24 28 23 22 27 28 29 24 23 22 21 23 26 22 20 27 28 30
30 23 21 21 21 20 22 22 20 17 17 19 20 21 20 21 23 24 26 31 30 28 22 22 22 20 22 24 23 20 18 18 20 19 17 16 17 20
22 21 17 20 18 21 12 12 14 13 10 9 9 9 10 11 10 10 13 15 18 24 22 21 22 21 20 22 25 21 21 17 14 15 16 17 19 17
19 15 16 19 15 10 11 12 10 9 6 6 8 9 10 10 12 13 13 14 15 18 20 20 22 22 24 25 24 23 20 21 21 19 18 19 20 19
15 15 17 13 11 14 13 9 9 9 7 7 8 6 6 5 5 5 8 8 9 8 8 11 13 17 21 22 22 23 20 21 20 20 21 21 20 15
14 15 17 16 14 16 16 12 12 12 8 6 5 6 5 5 3 3 5 6 7 8 6 6 7 11 14 16 19 19 20 21 22 21 20 19 20 19
14 13 16 17 15 14 13 13 15 15 9 8 7 7 6 6 6 4 4 3 3 6 8 7 6 9 11 14 15 17 18 18 16 14 14 17 21 16
14 13 15 16 16 14 12 12 15 16 9 8 7 8 7 7 6 6 4 5 4 6 2 6 6 5 7 15 12 15 16 10 14 16 17 20 23 22
14 13 14 16 16 14 13 11 11 11 10 8 8 9 9 8 8 7 6 5 4 4 5 5 5 4 5 7 8 10 9 8 11 15 18 20 22 20
16 13 13 15 16 15 13 10 11 11 10 6 8 8 8 8 9 7 7 6 6 5 5 6 5 4 4 2 2 4 2 4 5 9 12 14 12 10
15 14 14 15 15 15 14 13 13 13 10 6 6 7 6 8 10 9 8 7 8 8 6 5 5 4 5 5 5 3 1 4 6 3 2 4 7 6
15 14 15 14 14 15 15 14 14 14 12 9 4 5 5 5 7 7 7 7 7 9 3 2 2 3 3 3 3 2 3 5 5 3 4 6 7 7

GFSNE_850_spd_009.txt.gz
Wind_Speed
20 22 20 19 19 19 20 23 23 25 31 28 22 20 13 12 12 13 10 11 15 12 17 17 27 29 37 24 17 12 9 14 19 21 19 19 17 17
22 22 21 19 19 22 25 29 28 25 31 25 26 22 13 12 12 12 11 9 10 13 19 20 18 28 35 36 29 26 24 11 17 19 19 16 19 17
23 22 22 24 27 29 30 31 32 29 30 30 26 22 18 15 16 9 7 8 10 14 15 22 21 21 18 12 8 18 28 19 11 16 21 21 18 20
24 24 27 31 34 36 36 37 33 29 30 31 23 19 14 10 13 18 9 6 9 13 17 17 21 21 24 19 15 11 11 24 17 9 10 16 17 16
24 28 34 36 33 31 31 30 26 24 25 27 26 23 20 21 20 17 20 20 11 9 12 17 22 12 21 19 18 12 13 10 12 13 13 13 13 13
30 33 31 29 30 28 30 23 18 18 15 19 22 24 20 19 23 23 22 22 21 15 8 11 15 16 16 18 15 18 18 14 12 13 14 14 15 18
32 29 27 27 27 25 22 24 23 25 20 17 11 15 16 17 18 18 19 21 26 22 20 9 4 10 1 7 12 14 15 14 13 13 12 12 12 15
30 29 27 29 24 27 24 21 20 20 20 21 21 19 12 12 13 15 17 17 21 23 21 23 14 8 9 7 10 11 15 16 16 15 14 14 14 15
29 27 28 28 27 23 19 17 18 17 19 20 22 21 21 19 18 19 18 19 20 19 19 24 25 21 16 9 7 10 9 12 14 16 15 15 15 15
26 26 24 22 21 19 20 20 16 16 15 14 16 19 19 18 21 21 20 20 22 22 18 21 22 25 25 27 20 16 14 13 13 13 14 16 18 18
21 21 19 18 16 19 19 19 20 20 21 21 21 20 16 17 14 14 15 15 16 18 16 17 19 18 21 24 24 29 25 24 23 22 22 24 25 26
21 18 15 15 18 20 21 20 22 22 16 16 17 16 19 23 21 20 18 14 18 14 15 14 12 7 6 12 16 19 22 24 26 28 29 29 28 28
20 18 17 18 18 16 15 15 16 17 18 18 14 12 9 13 19 23 24 23 23 25 19 17 19 16 11 11 10 6 11 16 18 19 22 24 25 26
19 17 19 18 15 15 16 14 14 12 11 10 10 11 9 8 8 10 14 18 22 24 20 19 21 21 20 18 15 10 10 17 19 18 18 18 18 20
18 16 17 18 16 15 13 11 13 12 12 12 11 10 9 8 6 7 10 11 12 12 11 13 15 14 15 17 17 15 11 11 12 16 18 19 18 18
18 16 16 16 15 13 10 11 14 11 11 11 10 9 8 6 5 3 5 7 9 8 8 9 12 14 17 18 18 17 15 12 10 9 16 22 21 19
18 16 16 17 17 15 12 12 14 12 10 10 10 9 8 6 4 1 0 4 7 4 5 8 6 8 10 12 14 14 13 11 10 11 17 18 21 21
18 17 17 17 18 18 17 14 13 13 10 11 9 8 8 8 7 5 3 3 2 2 3 5 9 7 9 11 13 12 10 11 11 12 16 19 22 21
17 17 16 17 18 17 17 15 15 13 10 8 9 7 6 6 6 6 4 1 1 2 1 2 3 7 7 7 6 7 9 10 11 12 12 16 16 14
16 16 16 16 17 17 17 16 15 13 8 5 7 7 7 6 6 6 6 4 2 2 3 2 2 2 4 4 5 5 8 12 12 11 11 13 14 14
15 15 15 16 16 15 15 15 15 14 13 6 6 6 6 6 5 6 6 6 6 6 7 7 7 7 6 7 7 6 5 5 5 5 5 7 9 12
14 14 14 14 15 14 14 14 14 13 12 9 7 7 7 6 6 7 8 8 9 9 8 5 5 5 6 7 6 7 7 6 5 5 5 4 4 3
12 12 14 14 14 13 13 13 13 13 12 11 9 9 8 7 7 8 8 9 11 9 6 2 2 3 6 7 6 4 4 5 5 4 4 5 6 6

GFSNE_850_spd_015.txt.gz
Wind_Speed
15 18 20 21 21 22 23 21 20 32 37 37 35 28 30 30 28 25 23 23 21 15 12 13 17 18 19 26 22 19 16 22 25 26 25 23 21 20
18 20 22 24 24 23 25 26 23 27 37 35 34 32 30 29 26 25 23 22 19 17 16 13 11 13 18 21 26 24 23 17 19 25 27 26 24 23
21 24 23 23 24 22 23 24 25 25 30 40 31 29 29 26 25 22 21 20 17 12 8 13 14 12 13 13 22 28 28 26 22 19 23 24 24 22
22 24 24 25 26 24 25 24 24 24 26 34 29 25 23 23 23 21 19 18 16 19 13 12 12 12 14 13 11 20 24 33 27 24 22 23 23 24
22 25 28 31 27 26 26 26 24 23 22 23 30 27 25 22 21 20 19 18 16 14 16 21 18 17 13 14 12 17 17 26 23 29 31 27 24 21
24 30 33 30 24 25 24 23 23 22 22 24 25 23 22 20 19 18 20 17 17 15 18 20 20 18 15 14 14 17 25 27 23 22 27 27 27 24
30 31 30 29 28 24 21 21 22 22 21 21 22 22 20 18 18 16 14 18 18 16 16 13 14 15 13 12 13 16 26 25 22 22 28 28 22 20
29 29 27 25 19 20 20 17 15 19 21 22 22 20 22 19 17 15 15 11 15 11 9 9 11 11 11 9 15 9 20 25 20 19 13 9 13 11
26 25 23 18 18 16 17 20 21 19 21 23 23 20 20 18 18 18 15 16 15 14 13 14 11 11 12 12 11 10 10 23 26 23 20 19 16 15
23 22 18 17 15 17 20 21 19 18 17 18 20 19 19 19 18 18 18 17 18 19 16 19 14 13 11 15 14 9 8 18 20 18 19 18 16 15
21 17 17 16 16 17 19 19 20 19 16 19 20 18 19 19 19 18 21 15 15 16 17 17 17 16 12 13 20 17 14 15 23 23 22 18 16 16
19 18 19 16 15 18 18 18 19 19 20 19 16 14 14 15 17 17 18 18 13 10 10 12 9 8 6 8 15 21 22 19 17 19 20 20 21 19
19 18 17 17 18 19 18 15 16 20 20 16 15 13 13 13 12 11 13 18 20 19 11 7 5 6 6 2 4 11 20 24 26 26 24 22 21 21
19 19 18 18 20 19 18 18 16 18 15 14 13 12 11 11 11 11 11 12 17 21 16 16 15 11 9 7 8 5 8 15 23 20 22 27 28 28
17 18 18 17 18 19 18 17 16 16 12 13 14 13 13 11 10 9 8 9 11 13 18 20 20 16 14 14 12 10 9 10 15 17 19 21 21 23
17 17 17 16 16 16 17 16 15 14 12 13 13 12 12 11 10 7 5 6 6 7 8 11 13 14 13 13 12 12 12 9 12 13 18 20 22 21
17 16 15 16 16 17 17 17 17 13 10 10 12 12 12 13 12 12 8 1 5 3 4 6 9 11 13 13 10 11 11 12 14 14 18 17 16 18
17 16 15 15 16 17 17 17 17 16 11 9 11 12 12 13 13 11 9 9 8 6 4 1 6 7 8 9 11 9 8 8 11 12 14 14 13 15
16 15 15 14 15 15 15 16 17 17 16 10 10 12 11 11 11 11 10 8 6 5 4 3 2 6 6 7 7 10 11 10 10 11 12 13 12 13
16 15 14 14 14 14 14 14 14 15 15 13 11 11 11 10 10 10 10 9 8 6 5 3 2 2 1 3 4 5 8 12 11 10 7 9 10 11
16 15 15 14 13 13 14 13 14 13 14 14 13 12 11 10 9 9 8 9 9 8 6 5 5 4 3 3 2 3 5 6 7 7 6 5 5 6
16 15 14 14 13 13 13 13 13 12 12 12 12 12 11 11 10 9 9 9 9 10 7 4 2 3 2 4 3 2 4 6 5 5 4 5 5 3
17 16 15 13 13 12 13 13 12 12 12 11 11 11 11 10 10 8 8 9 8 9 5 2 0 3 3 3 4 3 2 6 7 5 5 5 5 5

GFSNE_850_spd_018.txt.gz
Wind_Speed
14 15 16 18 20 21 22 23 25 32 36 35 35 31 30 29 29 30 28 25 26 28 25 23 19 19 19 19 25 21 21 27 21 25 26 26 26 25
17 18 19 21 22 22 22 23 25 29 38 37 36 32 30 30 28 28 27 28 26 26 26 25 17 16 15 18 24 26 25 21 20 22 27 28 27 26
17 18 20 22 22 23 24 26 28 29 35 43 33 31 29 28 26 25 23 24 21 26 24 24 9 12 13 13 16 22 24 26 23 19 21 28 29 27
19 20 21 23 24 25 26 27 29 30 30 37 32 30 27 27 28 26 24 21 21 21 20 21 18 7 8 11 11 16 22 21 22 24 21 22 27 29
15 17 22 24 25 25 25 27 27 26 24 28 33 28 27 24 25 23 22 21 21 18 19 15 12 14 14 13 12 13 17 20 23 25 27 23 25 26
14 17 22 21 21 22 24 23 23 22 23 26 28 25 24 23 21 20 20 17 18 18 15 13 15 17 15 13 16 15 15 18 18 24 30 28 25 29
17 19 18 20 29 22 18 19 19 20 20 22 25 23 23 21 20 20 21 18 19 14 13 15 14 12 10 11 13 16 15 20 25 26 27 30 31 31
18 17 17 18 16 21 19 20 16 20 23 24 25 25 25 22 18 19 19 16 16 13 7 12 10 9 12 12 16 17 16 14 27 22 22 26 28 22
15 15 16 15 19 17 18 19 21 20 22 22 24 23 24 22 20 20 19 18 17 15 14 10 11 12 12 13 16 16 15 12 25 23 19 23 24 27
14 14 15 16 16 20 18 19 19 19 20 21 20 22 22 21 20 18 19 20 19 19 16 18 15 14 12 12 15 15 11 10 20 18 18 11 8 15
13 13 15 14 16 17 18 20 19 19 18 21 23 23 20 21 21 18 19 18 20 16 16 19 18 16 15 14 12 15 11 9 22 25 21 20 20 18
13 13 16 20 20 17 17 17 18 18 20 21 18 17 16 16 15 15 17 18 18 15 12 12 11 11 11 10 10 11 16 12 15 23 23 22 19 16
13 14 13 20 20 19 19 14 18 20 18 17 16 14 13 13 13 13 14 15 16 20 14 3 6 8 11 1 5 7 12 16 16 16 22 26 24 16
14 14 17 19 18 18 16 18 18 16 15 14 14 14 14 14 13 13 13 13 14 17 15 12 13 7 4 4 4 5 8 11 15 14 11 13 17 21
15 16 17 17 17 15 17 17 16 13 12 12 13 14 14 14 14 15 10 11 12 13 15 17 13 13 11 10 8 7 7 9 13 15 16 14 16 23
13 16 16 15 15 16 13 13 12 13 11 12 12 14 14 14 15 13 9 7 7 8 7 13 16 16 14 13 11 11 10 7 9 13 16 17 16 16
17 13 12 12 11 11 11 11 11 13 11 10 11 12 13 13 14 14 11 9 4 5 7 6 7 11 11 12 11 11 12 13 11 12 16 13 14 15
14 11 12 12 12 11 11 11 11 12 13 11 10 11 12 12 13 13 11 10 9 7 6 0 5 8 10 12 15 11 10 11 12 16 14 13 12 13
11 12 12 12 12 11 10 10 11 12 14 12 10 10 11 11 11 11 11 10 9 8 6 4 2 4 12 13 11 12 6 10 9 10 10 13 11 12
14 11 12 12 11 11 10 10 11 12 11 12 11 10 10 10 10 10 9 10 9 8 6 5 5 4 4 6 7 7 13 10 9 10 10 12 13 15
13 13 13 12 11 10 10 11 12 11 11 12 10 10 10 9 9 9 9 9 9 8 7 6 7 5 3 0 1 2 5 11 12 10 10 8 7 7
15 14 13 12 11 10 10 10 10 9 9 10 10 10 9 9 8 8 8 8 8 8 7 7 6 2 3 4 1 5 4 6 7 8 10 10 8 6
18 17 15 14 13 12 10 9 9 9 10 10 9 9 9 8 9 8 7 8 7 8 7 6 5 1 1 2 3 2 5 5 6 5 7 8 9 9

GFSNE_850_spd_021.txt.gz
Wind_Speed
17 15 14 16 17 17 20 22 25 30 32 32 33 31 31 31 32 31 31 30 31 32 34 33 31 27 26 23 24 23 30 27 24 20 28 32 32 32
20 14 15 18 17 19 21 23 24 29 36 34 35 33 32 31 29 30 29 32 30 30 29 27 27 26 25 23 19 23 26 33 26 21 23 26 29 30
15 15 16 16 18 20 24 26 28 29 34 37 36 34 31 29 29 29 30 30 30 29 27 32 30 28 25 23 18 20 22 21 28 27 21 23 28 28
13 15 17 18 21 24 26 26 27 28 31 36 37 33 30 28 29 28 27 24 26 25 29 23 33 25 25 22 14 18 19 20 20 25 27 22 22 26
13 14 17 19 23 24 22 23 25 26 27 29 34 31 30 28 27 25 24 24 23 24 27 25 16 15 20 20 17 15 18 19 19 18 23 27 20 20
11 13 18 21 20 18 22 20 20 22 23 24 27 27 26 25 25 26 24 22 23 21 25 20 11 14 17 15 16 18 20 19 19 17 20 23 24 16
15 18 19 20 26 26 22 19 18 19 20 22 25 28 25 26 24 27 24 20 20 21 22 18 15 17 12 10 7 15 16 17 18 16 20 22 23 20
18 18 16 17 16 21 19 22 22 20 22 25 25 27 27 25 24 26 24 21 22 18 14 21 11 8 10 11 14 17 20 17 18 17 20 21 19 28
16 15 15 14 17 16 18 22 21 21 24 26 25 24 25 23 24 24 21 20 21 20 19 17 12 11 10 11 13 19 25 19 18 15 19 21 26 26
13 13 13 14 15 22 23 19 19 19 19 20 22 26 26 26 25 24 23 23 22 22 19 23 18 18 14 13 15 16 20 17 13 13 18 19 20 19
12 12 13 14 16 22 22 19 19 19 17 21 24 26 23 20 18 19 19 20 21 20 17 21 20 21 18 18 16 18 20 14 11 9 19 14 10 21
12 11 15 21 23 22 21 20 19 19 22 22 19 18 17 17 19 16 15 17 17 20 17 14 12 13 15 20 18 17 18 14 10 16 16 15 14 8
11 11 10 20 20 20 19 18 18 25 21 17 18 16 16 16 15 14 15 17 18 17 16 15 8 9 13 15 6 9 9 11 10 11 21 18 18 15
14 11 14 18 19 18 17 17 20 16 17 17 15 14 15 16 15 15 15 16 17 18 14 16 12 12 9 5 4 3 5 8 10 8 10 22 22 20
13 13 17 17 16 15 14 18 18 14 15 15 14 14 16 17 17 20 17 13 12 15 16 17 16 11 9 8 7 6 1 5 8 6 6 7 19 24
12 15 19 13 15 16 15 12 13 14 15 14 15 15 15 16 17 16 18 22 10 10 11 9 19 14 12 11 10 11 6 5 8 12 10 8 8 8
18 19 12 12 12 11 12 12 12 12 13 14 14 14 15 14 15 16 16 17 15 8 10 5 5 13 15 14 13 11 9 9 5 8 12 12 16 14
17 12 11 13 12 12 12 12 12 12 13 12 12 13 14 14 14 15 15 14 15 14 13 8 9 5 8 12 14 11 9 11 12 10 10 11 9 11
17 11 13 14 12 11 11 12 12 12 14 12 12 12 13 13 14 13 13 13 12 11 10 10 11 2 8 13 7 14 11 10 12 12 15 13 13 10
15 14 13 12 12 11 11 11 12 11 10 11 10 11 12 11 11 12 12 12 12 11 10 9 9 8 6 9 3 9 11 2 10 7 8 8 11 14
16 15 14 15 15 13 13 14 13 12 11 10 9 11 11 11 10 10 11 11 11 10 10 10 10 10 5 1 0 3 7 11 10 7 8 8 7 7
20 19 18 16 16 16 15 14 11 11 11 10 10 9 10 9 10 10 9 10 10 10 10 11 8 6 3 4 6 1 2 6 10 11 10 9 7 6
21 21 21 20 20 20 17 14 12 10 11 11 9 8 9 7 9 9 10 8 8 10 10 10 8 5 3 3 1 5 2 6 6 6 7 9 10 9

GFSNE_850_spd_024.txt.gz
Wind_Speed
20 23 19 19 14 17 19 18 22 29 32 32 31 27 26 29 30 33 37 37 35 34 36 34 32 32 30 29 27 27 28 27 25 26 30 28 26 30
25 23 24 14 16 18 15 18 21 27 35 31 31 27 24 32 34 37 35 39 39 35 31 30 31 33 30 28 25 25 27 25 25 28 29 33 28 26
20 16 17 13 15 15 17 21 23 24 29 31 31 29 31 36 41 33 32 31 29 28 29 29 32 32 27 30 26 23 26 26 25 24 25 33 31 23
13 11 12 14 13 17 21 22 26 29 31 34 33 34 34 35 29 28 28 29 29 30 28 29 32 29 29 29 27 25 24 25 22 23 21 25 31 29
15 14 14 13 19 21 23 28 29 29 24 28 35 34 28 26 28 27 28 28 26 25 24 27 28 31 26 20 16 18 23 24 22 21 22 21 28 27
14 13 14 18 20 23 26 31 26 24 25 25 27 29 28 28 25 28 30 29 31 24 24 26 28 26 13 14 17 18 19 21 22 20 19 20 25 25
11 14 16 19 23 25 23 25 24 26 27 23 26 27 27 25 26 28 30 30 29 22 25 25 21 24 18 19 16 15 17 16 18 19 19 19 20 24
14 16 19 16 17 19 20 19 24 27 24 25 29 30 31 27 27 27 29 29 30 24 21 27 22 21 12 12 11 12 13 19 22 20 18 13 16 20
14 16 17 12 18 19 22 25 26 19 19 23 26 25 22 24 30 33 33 30 30 27 24 29 24 23 18 16 14 12 17 22 23 22 18 9 14 12
15 18 15 14 21 23 23 26 23 19 15 17 23 26 28 32 22 21 23 25 24 23 22 28 25 26 20 20 19 17 19 21 22 18 15 9 13 15
15 15 14 18 22 23 25 24 22 21 14 20 26 21 17 16 18 22 23 22 23 22 19 21 24 25 20 21 21 19 21 22 21 15 8 11 12 9
13 14 15 18 20 23 24 22 22 21 24 22 18 18 15 16 18 19 19 23 23 26 19 18 20 17 13 14 16 18 20 19 16 11 8 10 11 21
16 14 12 20 22 22 20 19 18 22 19 20 22 17 16 17 17 14 16 20 23 24 22 16 21 18 14 18 20 10 13 11 8 8 10 16 14 9
17 16 15 17 19 16 15 15 16 17 19 23 18 17 18 18 18 18 19 21 25 22 18 15 19 15 13 17 15 2 1 5 5 7 6 18 15 12
16 16 14 18 14 14 15 16 17 19 19 24 19 20 17 17 18 19 18 19 24 13 14 18 19 18 12 9 12 12 9 2 4 5 2 6 19 14
16 15 18 17 11 14 14 14 16 17 18 19 23 17 17 17 17 16 20 22 21 24 12 12 13 17 15 12 13 12 7 6 2 4 4 3 8 17
19 21 22 12 14 15 13 12 15 17 17 19 21 16 18 18 16 14 16 19 17 20 23 1 4 10 19 17 15 11 8 7 9 5 6 5 5 3
24 23 20 11 14 16 14 12 15 16 19 21 15 17 17 18 14 15 16 16 17 15 14 15 15 6 5 9 12 11 7 8 10 9 8 8 7 7
23 22 17 11 14 15 13 12 14 17 20 15 17 13 16 16 11 14 15 16 15 13 12 11 12 8 10 5 11 11 13 4 6 6 12 9 10 9
23 21 17 15 15 15 14 14 18 20 17 14 16 11 14 14 13 13 11 14 14 15 13 10 12 11 10 7 10 5 10 8 11 7 5 7 13 13
20 21 18 16 16 18 17 17 19 18 15 12 12 12 13 12 10 14 10 9 10 14 12 12 12 9 4 1 4 5 6 7 7 5 10 8 7 7
23 23 21 21 19 18 20 21 20 16 13 14 13 15 12 13 7 10 13 11 9 12 12 8 8 7 4 4 6 1 2 3 7 8 5 5 6 5
21 21 23 22 21 22 23 24 22 17 14 15 14 12 12 11 5 9 9 13 9 10 10 9 11 8 6 5 2 7 4 2 3 5 6 7 8 6

GFSNE_850_spd_027.txt.gz
Wind_Speed
16 21 23 23 22 26 15 14 15 20 29 29 29 23 20 22 25 28 35 41 45 45 40 37 30 27 27 27 28 27 25 25 26 25 26 27 28 31
21 22 20 20 17 13 9 13 15 16 25 28 29 29 29 32 35 39 42 43 37 30 25 24 26 28 29 30 30 27 25 24 25 26 26 25 29 29
21 16 13 13 13 10 11 16 20 24 28 32 36 37 38 39 39 38 30 27 25 27 27 26 26 27 29 28 26 23 24 23 25 23 26 27 28 27
16 14 14 9 12 14 18 22 25 26 32 36 36 35 35 33 28 27 25 24 27 26 24 23 24 26 28 29 26 28 27 28 29 27 25 27 28 28
16 17 17 15 17 19 22 25 28 32 29 26 31 30 26 24 24 22 23 27 27 27 28 23 22 25 26 27 28 25 18 20 22 25 24 26 27 28
15 16 14 16 18 20 24 29 28 28 25 28 29 25 25 24 23 26 29 29 32 30 26 18 19 24 24 23 22 17 18 20 21 21 20 25 27 27
14 14 16 18 21 24 25 25 27 26 28 30 27 27 28 28 27 28 29 34 40 37 31 24 23 22 21 23 17 21 19 19 18 18 21 21 25 28
16 17 19 23 23 21 22 24 24 27 29 24 25 26 27 22 23 30 36 36 34 27 26 28 22 21 22 22 16 8 8 9 13 18 22 21 23 27
18 17 18 21 20 21 22 25 23 24 21 21 21 24 28 28 30 33 24 26 28 28 26 26 21 25 23 20 22 17 15 14 17 21 21 19 21 21
18 18 18 18 18 21 23 23 24 22 19 15 20 27 29 24 18 19 23 28 28 25 21 24 22 23 21 20 18 17 16 19 20 22 23 19 19 18
19 18 16 17 19 21 23 25 25 20 17 16 16 16 14 12 13 17 21 21 27 27 24 22 21 23 20 13 10 11 17 19 19 21 18 12 16 17
19 17 16 18 19 20 23 24 21 17 17 16 19 16 10 12 13 14 17 21 25 31 28 21 24 19 21 9 13 15 19 19 14 14 12 10 16 14
18 15 18 18 18 20 21 17 14 15 18 18 23 19 15 15 15 14 13 18 25 26 28 22 21 18 16 20 20 21 6 7 7 9 10 8 6 17
17 15 16 17 14 17 13 11 13 15 18 20 22 23 22 17 16 16 16 16 19 23 19 14 18 16 16 16 16 23 11 2 3 8 8 6 11 9
17 16 17 13 16 13 12 13 13 16 18 19 22 23 21 16 17 18 15 15 15 16 22 11 12 13 16 15 14 14 18 6 5 5 7 4 8 10
18 18 19 18 19 15 13 14 14 15 17 19 21 24 17 17 17 13 15 17 19 17 15 8 10 13 15 14 13 14 9 11 12 5 9 2 9 16
20 21 23 22 21 17 14 15 13 14 18 21 22 22 18 18 16 12 13 16 17 17 15 16 14 7 9 12 16 14 9 8 7 6 5 6 10 11
23 24 24 24 22 17 14 15 13 14 18 21 23 18 16 16 16 12 12 13 14 13 13 15 13 10 13 7 8 6 5 5 2 6 2 3 3 4
26 25 25 24 22 18 15 15 15 17 19 22 23 16 13 13 13 13 13 12 12 11 11 11 10 12 11 11 8 5 7 3 3 4 5 2 4 5
27 26 25 23 19 18 15 16 16 18 20 22 16 12 11 14 12 11 13 13 12 12 12 10 9 8 9 9 12 8 6 6 5 5 2 5 9 6
26 25 23 20 18 16 17 18 19 19 20 21 14 14 13 15 12 9 11 12 11 12 14 11 9 6 5 4 6 5 1 3 8 5 3 5 7 8
25 23 21 20 19 20 19 19 21 21 23 22 17 15 16 14 11 8 9 12 13 13 12 7 5 6 7 6 4 3 4 5 6 2 1 9 5 5
23 22 21 20 19 20 22 24 23 22 21 21 16 15 16 11 9 7 7 10 13 11 8 6 5 11 10 5 8 8 6 2 1 2 5 5 4 2